Hourly Weather Bolshoe Zhurino

Today, 1 August, Sunday

Time Temperature Precipitation Wind Pressure Humidity
00:00 +19°C° 0 mm 1 mps 739 mmHg 65%
01:00 +19°C° 0 mm 1 mps 740 mmHg 65%
02:00 +19°C° 0 mm 1 mps 740 mmHg 66%
03:00 +18°C° 0 mm 2 mps 740 mmHg 69%
04:00 +18°C° 0 mm 2 mps 740 mmHg 71%
05:00 +18°C° 0 mm 2 mps 740 mmHg 73%
06:00 +20°C° 0 mm 3 mps 740 mmHg 69%
07:00 +22°C° 0 mm 3 mps 740 mmHg 65%
08:00 +25°C° 0 mm 4 mps 740 mmHg 62%
09:00 +27°C° 0 mm 4 mps 740 mmHg 57%
10:00 +28°C° 0 mm 4 mps 740 mmHg 52%
11:00 +30°C° 0 mm 4 mps 740 mmHg 47%
12:00 +30°C° 0 mm 5 mps 740 mmHg 44%
13:00 +32°C° 0 mm 5 mps 740 mmHg 42%
14:00 +32°C° 0 mm 5 mps 740 mmHg 39%
15:00 +32°C° 0 mm 4 mps 740 mmHg 43%
16:00 +30°C° 0 mm 4 mps 739 mmHg 46%
17:00 +29°C° 0 mm 4 mps 739 mmHg 50%
18:00 +28°C° 0 mm 3 mps 739 mmHg 54%
19:00 +26°C° 0 mm 3 mps 739 mmHg 58%
20:00 +24°C° 0 mm 2 mps 739 mmHg 62%
21:00 +24°C° 0 mm 2 mps 739 mmHg 62%
22:00 +23°C° 0 mm 2 mps 739 mmHg 62%
23:00 +23°C° 0 mm 2 mps 739 mmHg 62%

Tomorrow, 2 August, Monday

Time Temperature Precipitation Wind Pressure Humidity
00:00 +21°C° 0 mm 2 mps 739 mmHg 65%
01:00 +21°C° 0 mm 2 mps 739 mmHg 67%
02:00 +20°C° 0 mm 2 mps 739 mmHg 69%
03:00 +20°C° 0.2 mm 2 mps 739 mmHg 73%
04:00 +20°C° 0.2 mm 2 mps 739 mmHg 77%
05:00 +20°C° 0.2 mm 2 mps 739 mmHg 81%
06:00 +22°C° 0.1 mm 3 mps 739 mmHg 74%
07:00 +25°C° 0.1 mm 3 mps 739 mmHg 68%
08:00 +26°C° 0.1 mm 3 mps 739 mmHg 61%
09:00 +28°C° 0 mm 4 mps 738 mmHg 54%
10:00 +30°C° 0 mm 5 mps 738 mmHg 47%
11:00 +33°C° 0 mm 5 mps 738 mmHg 40%
12:00 +34°C° 0 mm 6 mps 737 mmHg 38%
13:00 +34°C° 0 mm 6 mps 737 mmHg 37%
14:00 +34°C° 0 mm 7 mps 737 mmHg 35%
15:00 +34°C° 0 mm 6 mps 736 mmHg 38%
16:00 +33°C° 0 mm 5 mps 736 mmHg 41%
17:00 +32°C° 0 mm 4 mps 735 mmHg 44%
18:00 +28°C° 0.3 mm 5 mps 735 mmHg 59%
19:00 +23°C° 0.3 mm 5 mps 736 mmHg 74%
20:00 +19°C° 0.3 mm 6 mps 736 mmHg 89%
21:00 +19°C° 0 mm 5 mps 736 mmHg 89%
22:00 +19°C° 0 mm 5 mps 736 mmHg 88%
23:00 +19°C° 0 mm 5 mps 736 mmHg 87%

Day after tomorrow, 3 August, Tuesday

Time Temperature Precipitation Wind Pressure Humidity
00:00 +19°C° 0 mm 5 mps 736 mmHg 89%
01:00 +19°C° 0 mm 5 mps 736 mmHg 90%
02:00 +19°C° 0 mm 5 mps 736 mmHg 91%
03:00 +18°C° 0 mm 4 mps 737 mmHg 93%
04:00 +18°C° 0 mm 3 mps 737 mmHg 94%
05:00 +18°C° 0 mm 3 mps 737 mmHg 96%
06:00 +18°C° 0 mm 3 mps 737 mmHg 90%
07:00 +19°C° 0 mm 4 mps 738 mmHg 84%
08:00 +20°C° 0 mm 4 mps 738 mmHg 78%
09:00 +21°C° 0 mm 4 mps 739 mmHg 72%
10:00 +22°C° 0 mm 4 mps 739 mmHg 65%
11:00 +23°C° 0 mm 4 mps 739 mmHg 59%
12:00 +23°C° 0.1 mm 4 mps 739 mmHg 57%
13:00 +23°C° 0.1 mm 4 mps 739 mmHg 54%
14:00 +25°C° 0.1 mm 4 mps 739 mmHg 52%
15:00 +23°C° 0.3 mm 4 mps 739 mmHg 58%
16:00 +22°C° 0.3 mm 4 mps 740 mmHg 64%
17:00 +21°C° 0.3 mm 4 mps 740 mmHg 70%
18:00 +20°C° 0.3 mm 4 mps 740 mmHg 76%
19:00 +18°C° 0.3 mm 3 mps 740 mmHg 81%
20:00 +17°C° 0.3 mm 2 mps 741 mmHg 86%
21:00 +16°C° 0 mm 2 mps 741 mmHg 86%
22:00 +16°C° 0 mm 2 mps 741 mmHg 86%
23:00 +15°C° 0 mm 2 mps 741 mmHg 85%

4 August, Wednesday

Time Temperature Precipitation Wind Pressure Humidity
00:00 +15°C° 0 mm 2 mps 741 mmHg 85%
01:00 +15°C° 0 mm 2 mps 742 mmHg 84%
02:00 +15°C° 0 mm 2 mps 742 mmHg 84%
03:00 +15°C° 0 mm 2 mps 742 mmHg 83%
04:00 +15°C° 0 mm 2 mps 742 mmHg 83%
05:00 +15°C° 0 mm 1 mps 742 mmHg 82%
06:00 +16°C° 0 mm 2 mps 743 mmHg 77%
07:00 +18°C° 0 mm 2 mps 743 mmHg 71%
08:00 +19°C° 0 mm 3 mps 743 mmHg 65%
09:00 +20°C° 0 mm 3 mps 743 mmHg 60%
10:00 +21°C° 0 mm 3 mps 743 mmHg 56%
11:00 +22°C° 0 mm 3 mps 744 mmHg 51%
12:00 +24°C° 0 mm 3 mps 744 mmHg 48%
13:00 +23°C° 0 mm 4 mps 744 mmHg 44%
14:00 +25°C° 0 mm 4 mps 744 mmHg 40%
15:00 +23°C° 0 mm 4 mps 744 mmHg 43%
16:00 +24°C° 0 mm 3 mps 744 mmHg 46%
17:00 +22°C° 0 mm 3 mps 743 mmHg 49%
18:00 +21°C° 0 mm 2 mps 744 mmHg 54%
19:00 +19°C° 0 mm 2 mps 744 mmHg 59%
20:00 +19°C° 0 mm 1 mps 744 mmHg 64%
21:00 +18°C° 0 mm 1 mps 744 mmHg 68%
22:00 +16°C° 0 mm 1 mps 744 mmHg 72%
23:00 +16°C° 0 mm 1 mps 744 mmHg 75%

5 August, Thursday

Time Temperature Precipitation Wind Pressure Humidity
00:00 +15°C° 0 mm 1 mps 744 mmHg 78%
01:00 +15°C° 0 mm 1 mps 744 mmHg 80%
02:00 +14°C° 0 mm 1 mps 744 mmHg 82%
03:00 +15°C° 0 mm 1 mps 744 mmHg 82%
04:00 +14°C° 0 mm 0 mps 745 mmHg 81%
05:00 +14°C° 0 mm 0 mps 745 mmHg 81%
06:00 +16°C° 0 mm 0 mps 745 mmHg 73%
07:00 +20°C° 0 mm 1 mps 745 mmHg 66%
08:00 +22°C° 0 mm 1 mps 745 mmHg 58%
09:00 +23°C° 0 mm 1 mps 745 mmHg 53%
10:00 +25°C° 0 mm 1 mps 745 mmHg 48%
11:00 +26°C° 0 mm 2 mps 745 mmHg 42%
12:00 +27°C° 0 mm 2 mps 744 mmHg 40%
13:00 +27°C° 0 mm 2 mps 744 mmHg 39%
14:00 +28°C° 0 mm 2 mps 744 mmHg 37%
15:00 +26°C° 0.1 mm 3 mps 744 mmHg 46%
16:00 +24°C° 0.1 mm 3 mps 744 mmHg 55%
17:00 +21°C° 0.1 mm 4 mps 743 mmHg 63%
18:00 +20°C° 0 mm 5 mps 743 mmHg 66%
19:00 +19°C° 0 mm 6 mps 743 mmHg 69%
20:00 +17°C° 0 mm 6 mps 743 mmHg 72%
21:00 +19°C° 0 mm 6 mps 743 mmHg 69%
22:00 +19°C° 0 mm 5 mps 742 mmHg 66%
23:00 +19°C° 0 mm 5 mps 742 mmHg 63%

6 August, Friday

Time Temperature Precipitation Wind Pressure Humidity
00:00 +19°C° 0 mm 5 mps 742 mmHg 59%
01:00 +20°C° 0 mm 4 mps 742 mmHg 55%
02:00 +20°C° 0 mm 4 mps 742 mmHg 51%
03:00 +20°C° 0 mm 4 mps 742 mmHg 51%
04:00 +20°C° 0 mm 3 mps 742 mmHg 50%
05:00 +20°C° 0 mm 3 mps 742 mmHg 50%
06:00 +20°C° 0 mm 3 mps 742 mmHg 51%
07:00 +20°C° 0 mm 3 mps 742 mmHg 53%
08:00 +21°C° 0 mm 2 mps 742 mmHg 54%
09:00 +23°C° 0 mm 2 mps 742 mmHg 53%
10:00 +24°C° 0 mm 2 mps 742 mmHg 52%
11:00 +24°C° 0 mm 2 mps 742 mmHg 51%
12:00 +25°C° 0 mm 3 mps 741 mmHg 50%
13:00 +26°C° 0 mm 3 mps 741 mmHg 49%
14:00 +27°C° 0 mm 3 mps 741 mmHg 47%
15:00 +27°C° 0 mm 3 mps 741 mmHg 48%
16:00 +26°C° 0 mm 3 mps 740 mmHg 49%
17:00 +26°C° 0 mm 4 mps 740 mmHg 50%
18:00 +25°C° 0 mm 4 mps 740 mmHg 51%
19:00 +23°C° 0 mm 4 mps 740 mmHg 51%
20:00 +22°C° 0 mm 4 mps 740 mmHg 51%
21:00 +22°C° 0 mm 4 mps 740 mmHg 51%
22:00 +21°C° 0 mm 4 mps 741 mmHg 50%
23:00 +21°C° 0 mm 4 mps 741 mmHg 49%
Show more

We Need Your Consent

Meteoprog and our Service Providers may store and access personal data such as cookies, device identifiers or other similar technologies on your device and process such data to personalise content and ads, as well as provide social media features and to analyse the traffic.

  • Store and/or access information on your device

    Cookies, device identifiers or other information can be stored or accessed on your device for the purposes indicated above.

  • Personalised ads and content, ad and content measurement, audience insights, and products development

    Ads and content can be personalised based on a profile. More data can be added to better personalise ads and content. Ad and content performance can be measured. Insights about the audience who saw the ads and content can be derived. Such data can be used to develop or improve user’s experience, systems and software.

By clicking ‘I Agree’ you will allow the use of indicated cookies, device identifiers, web beacons or other similar technologies. Your settings can be changed in the browser on your device.

For certain purposes, legitimate interests may be relied on, rather than consent. You can read more about this in our Privacy and Cookie Policy.